Location: William D. McDowell Observatory
(40.7857°N, 74.1054°W)
Time: 21:16:23
(UTC-05:00)

N. Korean satellite - Visible Passes

Search period start: 21 February 2019 00:00
Search period end: 03 March 2019 00:00
Orbit: 456 x 510 km, 97.2° (Epoch: 21 February)

Date Brightness Start Highest point End Pass type
(mag) Time Alt. Az. Time Alt. Az. Time Alt. Az.
21 Feb 9.2 05:30:19 10° NE 05:33:09 23° E 05:35:55 10° SSE visible
22 Feb 10.2 05:07:03 10° ENE 05:08:13 11° E 05:09:24 10° ESE visible
23 Feb 10.2 18:23:49 10° SW 18:25:54 15° W 18:27:58 10° WNW visible
24 Feb 7.9 05:49:05 10° NNE 05:52:23 42° E 05:55:38 10° S visible
25 Feb 9.5 05:24:55 10° NE 05:27:31 20° E 05:30:06 10° SE visible
27 Feb 10.1 18:17:55 10° SW 18:20:17 17° W 18:22:38 10° NW visible
28 Feb 8.3 05:43:33 10° NNE 05:46:45 35° E 05:49:55 10° SSE visible
01 Mar 9.8 05:19:31 10° NE 05:21:52 17° E 05:24:12 10° SE visible
